sat.trackr.live / text

‹ back to catalog

STARLINK-11154 [DTC]

NORAD 61059 · 2024-164K

PAYLOAD ACTIVE UNKNOWN

§ Identity

Operator
Country
US
Launch date
2024-09-13
Launch site
AFWTR
Launch vehicle
Mass (kg)
RCS (m²)

Purposes: comms

External: N2YO · Heavens-Above · Gunter

§ Orbital elements

Epoch: 2026-09-21T17:10:02.959392Z

Period
91.74 min
Inclination
53.1596°
Eccentricity
0.0001269
Mean motion
15.69712005 rev/d
Perigee alt
358.9 km
Apogee alt
360.6 km
Semi-major
6,737.9 km
B*
-3.2979e-5
RAAN
65.1747°
Arg perigee
84.3989°
Mean anomaly
275.7173°
Rev number
11,620

§ Raw data

STARLINK-11154 [DTC]1 61059U 24164K   26264.71531203 -.00004582  00000+0 -32979-4 0  99942 61059  53.1596  65.1747 0001269  84.3989 275.7173 15.69712005116209

JSON: /api/v1/satellites/61059 · /tle

For live sub-satellite position, see the globe view (requires WebGL).

§ Visibility from observer

Set your observer location to see the next 7 days of passes ≥ 10°. The values pass through the URL so the page stays shareable.

No JS? Fill the form by hand. The geolocation button needs JavaScript.